Showing default

OPS 9311 (IDSCS 1), 2215

Orbit data source: Space-Track

OPS 9311 (IDSCS 1), 2215 is a payload satellite owned by USAF SSD (US) in GEO that was launched on Thu, 16 Jun 1966 UTC via a TITAN IIIC launch vehicle from the Air Force Eastern Test Range (AFETR). Payload-class satellites include a variety of spacecraft equipped with specific instruments for various scientific and technological missions. These include communications satellites like Starlink; space stations such as the ISS; scientific satellites like the Hubble; Earth observation satellites from companies like Planet Labs, Umbra, and HawkEye 360; GPS; miniature CubeSats for education and research; and military/defense satellites.

Loading next visibility...
Identifier
2215, 1966-053B
Orbit
GEO
Last TLE update
2 days ago
Origin
Manufacturer
Philco-Ford WDL
Mission
Non-operational Defense Communications
Bus & Motor
IDCSP, Unknown motor
Mass
45 kg wet, 45 kg dry
Launch date (UTC)
1966-06-16 (59 years ago)
Launch vehicle
TITAN IIIC
Launch site
Air Force Eastern Test Range (AFETR)
Object type
Payload
Rocket body
Debris
Shape & HBR
Ico Poly, 0.9 m
Radar Cross Section
0.926 m², Medium (>0.1 m² and < 1m²)

Expand to show TLE details & history

TLE from 2 days ago
0 OPS 9311 (IDSCS 1)
1 02215U 66053B   25127.85776860 -.00000108  00000-0  00000-0 0  9994
2 02215   7.9229  47.3637 0029462 214.3517 145.3591  1.07910206129991
Epoch: 2025-05-07T20:35Z
Definitive object data (Epoch: 2025-05-07T20:35:11.207Z)
Latitude
-0.00001°
Longitude
-127.46436°
Altitude
33,869.9 km
Speed
3.143 km/s
True Right ascension
03h 09m 04s
True Declination
0° 00' 00"
Sunlit
Object was in daylight at TLE epoch
Visualization TLE readout
Latitude
-2.17766°
Longitude
-143.35425°
Altitude
33,847.956 km
Speed
3.145 km/s
Apparent Right ascension
02h 20m 02s
Apparent Declination
-8° 51' 17"
Sunlit
Object is in daylight
Visualization observer readout
Local Sidereal Time
00:14:44
Azimuth
142.09° SSE
Elevation
33.271°
Doppler factor
1
Orbital elements
Apogee altitude
33,891.983 km
Perigee altitude
33,655.392 km
Semi-major axis
40,151.825 km
Eccentricity
0.0029462
Inclination
7.9229°
RAAN
47.3637°
Arg. of periapsis
214.3517°
True anomaly
145.55043°
Mean anomaly
145.3591°
Eccentric anomaly
145.45482°
Mean motion
0.26976 °/min
BSTAR
Unknown
Orbital period
1334.5 mins
Loading historical data...
2215 neighbors
Loading maneuver chart data...
Loading SW <> Apogee altitude chart data...
Loading historical data...
Loading historical data...
Loading historical data...
Loading historical data...
Loading historical data...
Loading historical data...
Loading historical data...

OPS 9311 (IDSCS 1) Visibility forecast

Observer location: undefined°, undefined°

Span
Click to sort rows by Start time (UTC) header in descending order
Start Az.
Max El. time (UTC)
Max El. Az.
Max El.
End time (UTC)
End Az.
1440 mins2025-05-09 16:04:19.549Z142.102° SSE2025-05-09 21:16:19.549Z129.041° SE32.216°2025-05-10 16:04:19.549Z113.008° SE
|